Crestview, FL

6:14 PM CST on December 17, 2017 (GMT -0600)
Sikes

Weather History for KCEW - March, 2014

Change the Weather History Date:

Sunday, March 2, 2014

  Actual Average Record
Temperature  
Mean Temperature 58 °F -  
Max Temperature 75 °F 72 °F 84 °F (1992)
Min Temperature 42 °F 49 °F 23 °F (1980)
Degree Days  
Heating Degree Days 6    
Growing Degree Days 8 (Base 50)    
Moisture  
Dew Point 47 °F    
Average Humidity 84    
Maximum Humidity 97    
Minimum Humidity 27    
Precipitation  
Precipitation 0.00 in - - ()
Sea Level Pressure  
Sea Level Pressure 30.14 in    
Wind  
Wind Speed 2 mph (South)    
Max Wind Speed 12 mph    
Max Gust Speed -    
Visibility 5 miles    
Events Fog    
Averages and records for this station are not official NWS values.
T = Trace of Precipitation, MM = Missing Value Source: NWS Daily Summary

Daily Weather History Graph

Daily Weather History Graph

Search for Another Location

Airport or City:

Trip Planner

Search our weather history database for the weather conditions in past years. The results will help you decide how hot, cold, wet, or windy it might be!

Date:

Astronomy

Mar. 02, 2014 Rise Set
Actual Time 6:11 AM CST 5:45 PM CST
Civil Twilight 5:47 AM CST 6:09 PM CST
Nautical Twilight 5:19 AM CST 6:37 PM CST
Astronomical Twilight 4:51 AM CST 7:05 PM CST
Moon 6:50 AM CST (3/2) 7:30 PM CST (3/2)
Length of Visible Light 12h 22m
Length of Day
11h 34m
Waxing Crescent, 3% of the Moon is Illuminated
Mar 2
Waxing Crescent
Mar 8
First Quarter
Mar 16
Full
Mar 23
Last Quarter
Mar 30
New

Hourly Weather History & Observations

Time (CST) Temp. Windchill Dew Point Humidity Pressure Visibility Wind Dir Wind Speed Gust Speed Precip Events Conditions
12:11 AM 46.0 °F - 44.1 °F 93% 30.21 in 4.0 mi Calm Calm - N/A   Partly Cloudy
12:49 AM 46.4 °F - 44.6 °F 93% 30.20 in 7.0 mi Calm Calm - N/A   Mostly Cloudy
12:53 AM 46.0 °F - 44.1 °F 93% 30.20 in 7.0 mi Calm Calm - N/A   Mostly Cloudy
1:01 AM 46.0 °F - 44.1 °F 93% 30.20 in 7.0 mi Calm Calm - N/A   Overcast
1:22 AM 46.0 °F 44.8 °F 44.1 °F 93% 30.18 in 1.5 mi ENE 3.5 mph - N/A   Overcast
1:28 AM 46.0 °F - 45.0 °F 96% 30.18 in 0.5 mi Calm Calm - N/A Fog Fog
1:53 AM 46.9 °F - 46.0 °F 97% 30.18 in 0.2 mi Calm Calm - N/A Fog Fog
2:53 AM 46.9 °F - 46.0 °F 97% 30.17 in 0.2 mi Calm Calm - N/A Fog Fog
3:53 AM 45.0 °F - 44.1 °F 97% 30.18 in 0.5 mi Calm Calm - N/A Fog Fog
4:09 AM 45.0 °F - 43.0 °F 93% 30.18 in 1.0 mi Calm Calm - N/A   Overcast
4:26 AM 44.1 °F - 43.0 °F 96% 30.19 in 0.5 mi Calm Calm - N/A Fog Fog
4:39 AM 44.1 °F - 43.0 °F 96% 30.19 in 1.0 mi Calm Calm - N/A   Mist
4:42 AM 43.0 °F - 42.1 °F 97% 30.19 in 4.0 mi Calm Calm - N/A   Mostly Cloudy
4:45 AM 43.0 °F - 42.1 °F 97% 30.19 in 2.0 mi Calm Calm - N/A   Scattered Clouds
4:53 AM 43.0 °F - 42.1 °F 97% 30.19 in 2.5 mi Calm Calm - N/A   Scattered Clouds
4:58 AM 43.0 °F - 42.1 °F 97% 30.19 in 1.8 mi Calm Calm - N/A   Mostly Cloudy
5:06 AM 43.0 °F - 42.1 °F 97% 30.19 in 0.5 mi Calm Calm - N/A Fog Fog
5:18 AM 44.1 °F - 42.1 °F 93% 30.19 in 1.0 mi Calm Calm - N/A   Mist
5:27 AM 43.0 °F - 42.1 °F 97% 30.19 in 2.5 mi Calm Calm - N/A   Scattered Clouds
5:35 AM 43.0 °F - 42.1 °F 97% 30.19 in 4.0 mi Calm Calm - N/A   Partly Cloudy
5:40 AM 43.0 °F - 42.1 °F 97% 30.19 in 1.5 mi Calm Calm - N/A   Partly Cloudy
5:43 AM 43.0 °F - 42.1 °F 97% 30.19 in 0.8 mi Calm Calm - N/A   Clear
5:53 AM 43.0 °F - 42.1 °F 97% 30.20 in 0.8 mi Calm Calm - N/A   Clear
6:02 AM 42.1 °F - 41.0 °F 96% 30.20 in 2.0 mi Calm Calm - N/A   Clear
6:09 AM 43.0 °F - 41.0 °F 93% 30.20 in 3.0 mi Calm Calm - N/A   Clear
6:53 AM 43.0 °F - 42.1 °F 97% 30.20 in 6.0 mi Calm Calm - N/A   Clear
7:53 AM 52.0 °F - 48.9 °F 89% 30.22 in 10.0 mi Calm Calm - N/A   Clear
8:53 AM 62.1 °F - 48.9 °F 62% 30.23 in 10.0 mi SE 5.8 mph - N/A   Clear
9:53 AM 69.1 °F - 42.1 °F 38% 30.22 in 10.0 mi SE 9.2 mph - N/A   Clear
10:53 AM 73.0 °F - 39.0 °F 29% 30.21 in 10.0 mi South 8.1 mph - 0.00 in   Clear
11:53 AM 73.0 °F - 37.9 °F 28% 30.19 in 10.0 mi SSW 9.2 mph - 0.00 in   Clear
12:53 PM 73.9 °F - 37.9 °F 27% 30.16 in 10.0 mi SSW 10.4 mph - N/A   Clear
1:53 PM 75.0 °F - 39.9 °F 28% 30.13 in 10.0 mi Variable 6.9 mph - N/A   Clear
2:53 PM 73.9 °F - 43.0 °F 33% 30.11 in 10.0 mi South 9.2 mph - 0.00 in   Clear
3:53 PM 73.0 °F - 48.9 °F 42% 30.09 in 10.0 mi South 9.2 mph - N/A   Clear
4:53 PM 70.0 °F - 51.1 °F 51% 30.09 in 10.0 mi South 6.9 mph - N/A   Clear
5:53 PM 64.9 °F - 54.0 °F 68% 30.07 in 10.0 mi South 8.1 mph - N/A   Clear
6:53 PM 61.0 °F - 55.9 °F 83% 30.06 in 10.0 mi South 4.6 mph - N/A   Clear
7:53 PM 57.9 °F - 55.0 °F 90% 30.05 in 9.0 mi SE 3.5 mph - N/A   Clear
8:24 PM 57.9 °F - 55.9 °F 93% 30.05 in 7.0 mi South 4.6 mph - N/A   Scattered Clouds
8:34 PM 57.9 °F - 55.9 °F 93% 30.05 in 7.0 mi South 3.5 mph - N/A   Mostly Cloudy
8:43 PM 59.0 °F - 57.0 °F 93% 30.05 in 6.0 mi South 5.8 mph - N/A   Overcast
8:53 PM 59.0 °F - 57.0 °F 93% 30.06 in 4.0 mi South 5.8 mph - N/A   Overcast
9:05 PM 59.0 °F - 57.9 °F 96% 30.06 in 1.8 mi South 5.8 mph - N/A   Overcast
9:15 PM 59.0 °F - 57.9 °F 96% 30.06 in 1.0 mi South 6.9 mph - N/A   Overcast
9:23 PM 60.1 °F - 59.0 °F 96% 30.06 in 3.0 mi South 6.9 mph - N/A   Overcast
9:39 PM 61.0 °F - 59.0 °F 93% 30.06 in 7.0 mi South 6.9 mph - N/A   Overcast
9:53 PM 61.0 °F - 59.0 °F 93% 30.05 in 7.0 mi South 4.6 mph - N/A   Overcast
10:23 PM 61.0 °F - 59.0 °F 93% 30.04 in 7.0 mi South 3.5 mph - N/A   Overcast
10:53 PM 61.0 °F - 59.0 °F 93% 30.02 in 7.0 mi South 4.6 mph - N/A   Overcast
11:53 PM 62.1 °F - 60.1 °F 93% 30.00 in 9.0 mi South 11.5 mph - N/A   Overcast